Content
SEND FEEDBACK

Daily
Averages
Monthly
Summary
United Kingdom

INVERNESS, SCOTLAND


Home > Europe > United Kingdom > Scotland
Elevation: 30 feet     Latitude: 57 32N     Longitude: 004 03W

WEATHER
 
SELECT A DAY
Number of Records: 236,074;   Date Range: 7/1/96 - 12/16/14
 
SHARE

PRINT THIS DATA

[ ← Previous Day ]
WEATHER ALMANAC - MAY 6, 2013
[ Next Day → ]
[ °C ]   °F
Weather ElementAverageHighLow
Temperature53.1 °F62.6 °F (2:20 pm)44.6 °F (11:50 pm)
Dewpoint47.5 °F51.8 °F (2:50 pm)44.6 °F (8:20 pm)
Humidity81.9 %100 % (6:50 pm)63 % (2:20 pm)
Barometer29.95 in30.04 in (10:20 pm)29.89 in (3:50 am)
Wind Speed10.5 mph20.7 mph (12:20 pm)
Weather ElementAverage
Visibility5.5 mi
Wind DirectionS (178.5 °)

Weather ElementTotal
Precipitation---
Heating Degree Days11.4 (Base 65)
Growing Degree Days3.6 (Base 50)
Averaged from 47 records on May 6, 2013
WEATHER CONDITIONS BREAKOUT
WIND DIRECTION BREAKOUT
WEATHER BY HOUR - MAY 6, 2013
[ °C ]   °F
Local TimeTemperatureDewpointHumidityBarometerVisibilityWind DirectionWind SpeedGust SpeedPrecipitationEventsConditions
12:50 AM51.8 °F46.4 °F82 %29.92 in6.2 miSSW (210°)10.4 mph
1:20 AM51.8 °F46.4 °F82 %29.92 in6.2 miSW (220°)9.2 mph
1:50 AM51.8 °F46.4 °F82 %29.92 in6.2 miSSW (200°)9.2 mphScattered Clouds
2:20 AM51.8 °F46.4 °F82 %29.92 in6.2 miSSW (200°)4.6 mphOvercast
2:50 AM51.8 °F46.4 °F82 %29.92 in6.2 miSouth (170°)4.6 mphOvercast
3:20 AM50.0 °F46.4 °F87 %29.92 in6.2 miSW (220°)4.6 mphOvercast
3:50 AM51.8 °F46.4 °F82 %29.89 in6.2 miSW (220°)8.1 mphScattered Clouds
4:20 AM51.8 °F46.4 °F82 %29.89 in6.2 miSW (220°)10.4 mphScattered Clouds
4:50 AM51.8 °F46.4 °F82 %29.89 in6.2 miSW (230°)6.9 mph
5:20 AM51.8 °F46.4 °F82 %29.89 in6.2 miSW (230°)6.9 mphMostly Cloudy
5:50 AM51.8 °F48.2 °F88 %29.92 in6.2 miSSW (210°)16.1 mphOvercast
6:20 AM51.8 °F46.4 °F82 %29.92 in6.2 miSW (220°)5.8 mphPartly Cloudy
6:50 AM53.6 °F48.2 °F82 %29.92 in6.2 miSW (230°)4.6 mphScattered Clouds
7:20 AM53.6 °F48.2 °F82 %29.92 in6.2 miSW (230°)6.9 mphMostly Cloudy
7:50 AM53.6 °F48.2 °F82 %29.92 in6.2 miSW (230°)6.9 mphMostly Cloudy
8:20 AM55.4 °F48.2 °F77 %29.92 in6.2 miWSW (240°)4.6 mphMostly Cloudy
8:50 AM53.6 °F50.0 °F88 %29.92 in6.2 miWNW (290°)6.9 mphScattered Clouds
9:20 AM57.2 °F50.0 °F77 %29.92 in6.2 miSW (230°)10.4 mphScattered Clouds
9:50 AM57.2 °F50.0 °F77 %29.92 in6.2 miWSW (250°)11.5 mphScattered Clouds
10:20 AM57.2 °F50.0 °F77 %29.92 in6.2 miSW (230°)18.4 mphScattered Clouds
10:50 AM57.2 °F50.0 °F77 %29.92 in6.2 miSW (230°)17.3 mphScattered Clouds
11:20 AM59.0 °F50.0 °F72 %29.92 in6.2 miWSW (240°)17.3 mphScattered Clouds
11:50 AM60.8 °F50.0 °F68 %29.95 in6.2 miSW (230°)19.6 mphScattered Clouds
12:20 PM59.0 °F48.2 °F67 %29.95 in6.2 miSW (230°)20.7 mphMostly Cloudy
12:50 PM57.2 °F48.2 °F72 %29.95 in6.2 miWSW (250°)15.0 mphMostly Cloudy
1:20 PM60.8 °F50.0 °F68 %29.95 in6.2 miWSW (240°)16.1 mphMostly Cloudy
1:50 PM60.8 °F50.0 °F68 %29.95 in6.2 miSW (230°)15.0 mphScattered Clouds
2:20 PM62.6 °F50.0 °F63 %29.95 in6.2 miWSW (240°)15.0 mphScattered Clouds
2:50 PM62.6 °F51.8 °F68 %29.95 in6.2 miWSW (240°)16.1 mphScattered Clouds
3:20 PM60.8 °F50.0 °F68 %29.95 in6.2 miWSW (240°)16.1 mphMostly Cloudy
3:50 PM60.8 °F50.0 °F68 %29.95 in6.2 miWSW (250°)12.7 mphMostly Cloudy
4:20 PM59.0 °F48.2 °F67 %29.95 in6.2 miSW (230°)15.0 mphMostly Cloudy
4:50 PM57.2 °F48.2 °F72 %29.95 in6.2 miSW (230°)18.4 mphMostly Cloudy
5:20 PM53.6 °F46.4 °F77 %29.95 in6.2 miNNW (330°)4.6 mphMostly Cloudy
5:50 PM48.2 °F46.4 °F93 %29.98 in6.2 miNNE (30°)9.2 mphMostly Cloudy
6:20 PM48.2 °F46.4 °F93 %29.98 in6.2 miNE (40°)10.4 mphMostly Cloudy
6:50 PM46.4 °F46.4 °F100 %29.98 in3.7 miNE (50°)8.1 mphRainLight Rain
7:20 PM46.4 °F46.4 °F100 %30.01 in1.9 miNNE (30°)5.8 mphRainLight Rain
7:50 PM46.4 °F46.4 °F100 %30.01 in1.6 miNorth (10°)6.9 mphRainLight Rain
8:20 PM46.4 °F44.6 °F93 %30.01 in1.2 miNE (40°)8.1 mphRainLight Rain
8:50 PM46.4 °F44.6 °F93 %30.01 in2.5 miNE (50°)9.2 mphRainLight Rain
9:20 PM46.4 °F44.6 °F93 %30.01 in2.5 miNE (40°)9.2 mphRainLight Rain
9:50 PM46.4 °F44.6 °F93 %30.01 in3.7 miNE (40°)10.4 mphRainLight Rain
10:20 PM46.4 °F44.6 °F93 %30.04 inNE (50°)8.1 mphRainLight Rain
10:50 PM46.4 °F44.6 °F93 %30.04 inNE (40°)6.9 mphDrizzle
11:20 PM46.4 °F44.6 °F93 %30.04 inNE (50°)6.9 mphDrizzle
11:50 PM44.6 °F44.6 °F100 %30.04 in3.7 miNNE (30°)6.9 mphOvercast
Hourly data recorded from EGPE, located miles away from Inverness, Scotland







STORIES FROM OUR PARTNERS